When you browse on this site, cookies collect data to enhance your experience and personalize the content and advertising you see.
Visit our Privacy Policy to learn more. By continuing to use the site, you agree to this use of cookies and data.
  • In United Kingdom
  • List of Countries
  • For 7 days
  • Water Temperature
  • Satellite Maps
  • Weather Map
  • Weather Widgets
  • user-avatar
    Login

    Hourly Weather Sozopol

    Today, 26 May, Sunday

    Time Temperature Precipitation Wind Pressure Humidity
    00:00 +16°C° 0 mm 2 mps 757 mmHg 85%
    01:00 +16°C° 0 mm 3 mps 757 mmHg 86%
    02:00 +16°C° 0 mm 3 mps 757 mmHg 87%
    03:00 +14°C° 0 mm 3 mps 757 mmHg 86%
    04:00 +14°C° 0 mm 3 mps 757 mmHg 86%
    05:00 +14°C° 0 mm 3 mps 757 mmHg 86%
    06:00 +17°C° 0 mm 3 mps 758 mmHg 80%
    07:00 +19°C° 0 mm 3 mps 758 mmHg 74%
    08:00 +21°C° 0 mm 2 mps 758 mmHg 68%
    09:00 +23°C° 0 mm 2 mps 758 mmHg 63%
    10:00 +25°C° 0 mm 1 mps 759 mmHg 58%
    11:00 +26°C° 0 mm 1 mps 759 mmHg 54%
    12:00 +27°C° 0 mm 1 mps 759 mmHg 53%
    13:00 +27°C° 0 mm 2 mps 759 mmHg 52%
    14:00 +27°C° 0 mm 3 mps 759 mmHg 52%
    15:00 +27°C° 0 mm 3 mps 758 mmHg 55%
    16:00 +26°C° 0 mm 4 mps 758 mmHg 57%
    17:00 +26°C° 0 mm 4 mps 758 mmHg 60%
    18:00 +23°C° 0 mm 4 mps 758 mmHg 66%
    19:00 +21°C° 0 mm 3 mps 758 mmHg 72%
    20:00 +19°C° 0 mm 3 mps 758 mmHg 78%
    21:00 +19°C° 0 mm 3 mps 759 mmHg 80%
    22:00 +18°C° 0 mm 2 mps 759 mmHg 82%
    23:00 +18°C° 0 mm 2 mps 759 mmHg 84%

    Tomorrow, 27 May, Monday

    Time Temperature Precipitation Wind Pressure Humidity
    00:00 +18°C° 0 mm 2 mps 759 mmHg 85%
    01:00 +17°C° 0 mm 2 mps 759 mmHg 87%
    02:00 +18°C° 0 mm 1 mps 759 mmHg 88%
    03:00 +18°C° 0 mm 1 mps 759 mmHg 88%
    04:00 +18°C° 0 mm 1 mps 759 mmHg 88%
    05:00 +18°C° 0 mm 1 mps 759 mmHg 88%
    06:00 +20°C° 0 mm 1 mps 759 mmHg 81%
    07:00 +22°C° 0 mm 1 mps 759 mmHg 75%
    08:00 +23°C° 0 mm 1 mps 759 mmHg 68%
    09:00 +24°C° 0 mm 2 mps 759 mmHg 63%
    10:00 +25°C° 0 mm 3 mps 759 mmHg 58%
    11:00 +26°C° 0 mm 4 mps 759 mmHg 53%
    12:00 +26°C° 0 mm 4 mps 759 mmHg 53%
    13:00 +26°C° 0 mm 5 mps 758 mmHg 54%
    14:00 +26°C° 0 mm 5 mps 758 mmHg 55%
    15:00 +25°C° 0 mm 5 mps 758 mmHg 58%
    16:00 +23°C° 0 mm 5 mps 758 mmHg 61%
    17:00 +23°C° 0 mm 5 mps 757 mmHg 64%
    18:00 +21°C° 0 mm 4 mps 758 mmHg 72%
    19:00 +19°C° 0 mm 4 mps 758 mmHg 81%
    20:00 +17°C° 0 mm 3 mps 758 mmHg 90%
    21:00 +17°C° 0 mm 3 mps 758 mmHg 91%
    22:00 +17°C° 0 mm 2 mps 758 mmHg 91%
    23:00 +16°C° 0 mm 2 mps 758 mmHg 92%

    Day after tomorrow, 28 May, Tuesday

    Time Temperature Precipitation Wind Pressure Humidity
    00:00 +16°C° 0 mm 2 mps 757 mmHg 91%
    01:00 +16°C° 0 mm 2 mps 757 mmHg 90%
    02:00 +16°C° 0 mm 2 mps 757 mmHg 89%
    03:00 +16°C° 0 mm 2 mps 756 mmHg 89%
    04:00 +16°C° 0 mm 1 mps 756 mmHg 90%
    05:00 +16°C° 0 mm 1 mps 755 mmHg 90%
    06:00 +19°C° 0 mm 1 mps 755 mmHg 83%
    07:00 +20°C° 0 mm 2 mps 755 mmHg 76%
    08:00 +23°C° 0 mm 2 mps 755 mmHg 69%
    09:00 +25°C° 0 mm 2 mps 755 mmHg 65%
    10:00 +26°C° 0 mm 3 mps 755 mmHg 60%
    11:00 +28°C° 0 mm 3 mps 755 mmHg 56%
    12:00 +28°C° 0 mm 4 mps 755 mmHg 55%
    13:00 +29°C° 0 mm 4 mps 754 mmHg 54%
    14:00 +29°C° 0 mm 4 mps 754 mmHg 53%
    15:00 +29°C° 0 mm 4 mps 754 mmHg 55%
    16:00 +28°C° 0 mm 4 mps 753 mmHg 58%
    17:00 +28°C° 0 mm 4 mps 753 mmHg 60%
    18:00 +26°C° 0 mm 4 mps 753 mmHg 66%
    19:00 +24°C° 0 mm 3 mps 753 mmHg 71%
    20:00 +22°C° 0 mm 3 mps 753 mmHg 76%
    21:00 +21°C° 0 mm 3 mps 753 mmHg 68%
    22:00 +21°C° 0 mm 3 mps 753 mmHg 61%
    23:00 +20°C° 0 mm 3 mps 753 mmHg 54%

    29 May, Wednesday

    Time Temperature Precipitation Wind Pressure Humidity
    00:00 +20°C° 0 mm 4 mps 753 mmHg 57%
    01:00 +20°C° 0 mm 4 mps 753 mmHg 61%
    02:00 +19°C° 0 mm 4 mps 753 mmHg 65%
    03:00 +19°C° 0 mm 4 mps 753 mmHg 70%
    04:00 +18°C° 0 mm 3 mps 753 mmHg 75%
    05:00 +18°C° 0 mm 3 mps 753 mmHg 80%
    06:00 +20°C° 0 mm 3 mps 754 mmHg 75%
    07:00 +22°C° 0 mm 3 mps 754 mmHg 69%
    08:00 +25°C° 0 mm 3 mps 754 mmHg 64%
    09:00 +26°C° 0 mm 3 mps 754 mmHg 58%
    10:00 +28°C° 0 mm 2 mps 754 mmHg 53%
    11:00 +29°C° 0 mm 2 mps 754 mmHg 47%
    12:00 +30°C° 0 mm 2 mps 754 mmHg 46%
    13:00 +31°C° 0 mm 2 mps 754 mmHg 44%
    14:00 +31°C° 0 mm 2 mps 754 mmHg 43%
    15:00 +31°C° 0 mm 2 mps 754 mmHg 46%
    16:00 +30°C° 0 mm 3 mps 754 mmHg 48%
    17:00 +30°C° 0 mm 3 mps 754 mmHg 51%
    18:00 +28°C° 0 mm 3 mps 754 mmHg 57%
    19:00 +26°C° 0 mm 3 mps 754 mmHg 62%
    20:00 +24°C° 0 mm 3 mps 754 mmHg 67%
    21:00 +22°C° 0 mm 3 mps 754 mmHg 68%
    22:00 +21°C° 0 mm 3 mps 755 mmHg 69%
    23:00 +20°C° 0 mm 3 mps 755 mmHg 70%

    30 May, Thursday

    Time Temperature Precipitation Wind Pressure Humidity
    00:00 +19°C° 0 mm 3 mps 755 mmHg 72%
    01:00 +19°C° 0 mm 2 mps 755 mmHg 74%
    02:00 +18°C° 0 mm 2 mps 755 mmHg 76%
    03:00 +18°C° 0 mm 2 mps 755 mmHg 78%
    04:00 +18°C° 0 mm 2 mps 755 mmHg 80%
    05:00 +18°C° 0 mm 2 mps 755 mmHg 82%
    06:00 +20°C° 0 mm 2 mps 755 mmHg 77%
    07:00 +23°C° 0 mm 2 mps 756 mmHg 72%
    08:00 +25°C° 0 mm 2 mps 756 mmHg 67%
    09:00 +26°C° 0 mm 2 mps 756 mmHg 62%
    10:00 +28°C° 0 mm 2 mps 756 mmHg 58%
    11:00 +29°C° 0 mm 1 mps 756 mmHg 53%
    12:00 +30°C° 0 mm 2 mps 756 mmHg 52%
    13:00 +30°C° 0 mm 2 mps 756 mmHg 51%
    14:00 +31°C° 0 mm 2 mps 755 mmHg 50%
    15:00 +30°C° 0 mm 2 mps 755 mmHg 52%
    16:00 +29°C° 0 mm 2 mps 755 mmHg 55%
    17:00 +29°C° 0 mm 2 mps 755 mmHg 57%
    18:00 +27°C° 0 mm 2 mps 755 mmHg 63%
    19:00 +25°C° 0 mm 2 mps 756 mmHg 69%
    20:00 +23°C° 0 mm 1 mps 756 mmHg 75%
    21:00 +23°C° 0.1 mm 1 mps 756 mmHg 76%
    22:00 +22°C° 0.1 mm 1 mps 756 mmHg 77%
    23:00 +22°C° 0.1 mm 1 mps 756 mmHg 78%

    31 May, Friday

    Time Temperature Precipitation Wind Pressure Humidity
    00:00 +21°C° 0.1 mm 2 mps 756 mmHg 79%
    01:00 +20°C° 0.1 mm 2 mps 756 mmHg 80%
    02:00 +20°C° 0.1 mm 2 mps 756 mmHg 81%
    03:00 +19°C° 0.4 mm 3 mps 756 mmHg 84%
    04:00 +19°C° 0.4 mm 4 mps 757 mmHg 86%
    05:00 +17°C° 0.4 mm 5 mps 757 mmHg 89%
    06:00 +19°C° 0.5 mm 5 mps 757 mmHg 88%
    07:00 +20°C° 0.5 mm 5 mps 757 mmHg 87%
    08:00 +20°C° 0.5 mm 6 mps 758 mmHg 85%
    09:00 +21°C° 0.2 mm 6 mps 758 mmHg 80%
    10:00 +23°C° 0.2 mm 5 mps 758 mmHg 75%
    11:00 +25°C° 0.2 mm 5 mps 758 mmHg 70%
    12:00 +23°C° 0.5 mm 5 mps 758 mmHg 75%
    13:00 +22°C° 0.5 mm 5 mps 758 mmHg 80%
    14:00 +21°C° 0.5 mm 5 mps 758 mmHg 85%
    15:00 +20°C° 0.8 mm 6 mps 758 mmHg 87%
    16:00 +20°C° 0.8 mm 6 mps 758 mmHg 90%
    17:00 +18°C° 0.8 mm 7 mps 757 mmHg 93%
    18:00 +18°C° 2.4 mm 7 mps 758 mmHg 93%
    19:00 +17°C° 2.4 mm 7 mps 758 mmHg 94%
    20:00 +17°C° 2.4 mm 6 mps 758 mmHg 95%
    21:00 +16°C° 3.3 mm 6 mps 758 mmHg 96%
    22:00 +16°C° 3.3 mm 6 mps 758 mmHg 96%
    23:00 +16°C° 3.3 mm 5 mps 758 mmHg 96%
    Show more